Regional Weather Roundup
Issued by NWS Green Bay, WI

Home | Current Version | Previous Version | Text Only | Print | Product List | Glossary On
Versions: 1 2 3 4 5 6 7 8 9 10 11 12 13 14 15 16 17 18 19 20 21 22 23 24 25 26 27 28 29 30 31 32 33 34 35 36 37 38 39 40 41 42 43 44 45 46 47 48 49 50
057
ASUS43 KGRB 090500
RWRGRB

NORTH-CENTRAL AND NORTHEAST WISCONSIN REGIONAL WEATHER ROUNDUP
NATIONAL WEATHER SERVICE GREEN BAY WI
1100 PM CST MON FEB 08 2016

WIZ005-009-010>012-018-019-090600-
NORTH CENTRAL WISCONSIN

CITY           SKY/WX    TMP DP  RH WIND       PRES   REMARKS
IRONWOOD       CLOUDY    12   9  85 N14G20    29.79S WCI  -3
MANITOWISH WTR NOT AVBL
ARBOR VITAE    NOT AVBL
EAGLE RIVER    NOT AVBL
LAND O LAKES   NOT AVBL
RHINELANDER    LGT SNOW  10   5  80 NW7       29.73F WCI  -1
PHILLIPS       NOT AVBL
ANTIGO         NOT AVBL
TOMAHAWK       NOT AVBL
MERRILL        NOT AVBL
$$

WIZ013-073-090600-
NORTHEAST WISCONSIN

CITY           SKY/WX    TMP DP  RH WIND       PRES   REMARKS
IRON MOUNTAIN  CLOUDY    13   5  70 NW17      29.71F WCI  -4
MARINETTE      CLOUDY    18  10  73 N8        29.75S WCI   7
$$

WIZ017-030-035>037-045-090600-
CENTRAL WISCONSIN

CITY           SKY/WX    TMP DP  RH WIND       PRES   REMARKS
MEDFORD        NOT AVBL
WAUSAU         CLOUDY    13   5  70 NW10      29.76F WCI   0
MOSINEE        NOT AVBL
MARSHFIELD     LGT SNOW  11   4  73 NW16      29.79S WCI  -6
WISC RAPIDS    FLURRIES  13   5  70 N14       29.82S WCI  -2
STEVENS POINT  NOT AVBL
WAUPACA        NOT AVBL
SHAWANO        NOT AVBL
CLINTONVILLE   NOT AVBL
WAUTOMA        NOT AVBL
$$

WIZ038-039-048-051-090600-
FOX VALLEY

CITY           SKY/WX    TMP DP  RH WIND       PRES   REMARKS
NWS GREEN BAY  CLOUDY    19  11  70 NW14      29.75S WCI   6
APPLETON       FLURRIES  18   9  68 NW12      29.74R WCI   5
OSHKOSH        CLOUDY    19  11  70 NW10      29.75S WCI   7
FOND DU LAC    LGT SNOW  18  13  80 NW9       29.75S WCI   7
$$

WIZ022-050-052-090600-
EAST CENTRAL WISCONSIN

CITY           SKY/WX    TMP DP  RH WIND       PRES   REMARKS
EPHRAIM        NOT AVBL
STURGEON BAY   CLOUDY    18   9  68 N18G28    29.75S WCI   2
MANITOWOC      NOT AVBL
SHEBOYGAN      LGT SNOW  21  15  78 N7        29.72S
$$

LMZ563-521-522-541>543-090600-
LAKESHORE

STATION/POSITION TIME  TEMP    WIND        PRES    VSBY  WAVE
                       AIR SEA DIR/SP/G                  HT/PER
                 (UTC) (F)     (DEG/KT/KT) (MB)    (MI)  (FT/S)
SHEBOYGAN LKSHOR 0400   24     350/ 23/ 24 1007.5R
KEWAUNEE LKSHORE 0400   20     340/ 10/ 14 1006.5R
ALGOMA MARINA    0411          320/ 13/ 17   N/A
NORTHPORT PIER   0403   20     330/ 20     1007.1S
CHAMBERS ISLAND  0400   18     320/ 16/ 21 1007.8R
MENOMINEE LKSHOR 0400   18     320/ 12     1006.7R
$$




USA.gov is the U.S. government's official web portal to all federal, state and local government web resources and services.